{"data":{"norad_id":52114,"intl_designator":"2022-029AC","name":"STARLINK-3737","alt_names":[],"object_type":"PAYLOAD","status":"ACTIVE","operator":null,"country":"US","launch_date":"2022-03-19","launch_site_code":"AFETR","launch_vehicle":null,"mission":null,"orbit_class":"UNKNOWN","rcs_meters":null,"size_class":null,"mass_kg":null,"dimensions":null,"purposes":["comms"],"wikipedia_slug":null,"has_3d_model":false,"image_url":null,"decayed_at":null,"tle_current":{"epoch":"2026-09-20T01:21:58.694112Z","epoch_age_seconds":94448,"freshness":"FRESH","line1":"1 52114U 22029AC  26263.05692933 -.00014262  00000+0 -41242-3 0  9996","line2":"2 52114  53.1659 271.4324 0000089  41.7092 318.3918 15.34353630250336","mean_motion":15.3435363,"eccentricity":8.9e-6,"inclination_deg":53.1659,"raan_deg":271.4324,"arg_perigee_deg":41.7092,"mean_anomaly_deg":318.3918,"bstar":-0.00041242,"rev_number":25033,"period_min":93.850594272717,"perigee_km":462.78018038529,"apogee_km":462.90194979485,"semimajor_km":6840.9780650901,"source":"CELESTRAK","updated_at":"2026-09-20T09:00:39.988216Z"}}}